Time,TemperatureF,DewpointF,PressureIn,WindDirection,WindDirectionDegrees,WindSpeedMPH,WindSpeedGustMPH,Humidity,HourlyPrecipIn,Conditions,Clouds,dailyrainin,SoftwareType,DateUTC
2013-11-15 00:01:00,43.0,39.0,30.10,NNW,331,0.0,0.0,87,0.00,,,0.00,weatherlink.com 1.10,2013-11-15 06:01:00,
2013-11-15 00:16:00,43.6,40.0,30.10,NNW,331,0.0,0.0,87,0.00,,,0.00,weatherlink.com 1.10,2013-11-15 06:16:00,
2013-11-15 00:31:00,44.2,41.0,30.10,NNW,331,0.0,0.0,87,0.00,,,0.00,weatherlink.com 1.10,2013-11-15 06:31:00,
2013-11-15 00:46:00,44.9,42.0,30.09,NNW,331,0.0,0.0,88,0.00,,,0.00,weatherlink.com 1.10,2013-11-15 06:46:00,
2013-11-15 01:01:00,45.4,42.0,30.09,NNW,331,0.0,0.0,88,0.00,,,0.00,weatherlink.com 1.10,2013-11-15 07:01:00,
2013-11-15 01:16:00,45.9,42.0,30.09,NNW,331,0.0,0.0,87,0.00,,,0.00,weatherlink.com 1.10,2013-11-15 07:16:00,
2013-11-15 01:31:00,46.4,43.0,30.07,NNW,331,0.0,0.0,89,0.01,,,0.01,weatherlink.com 1.10,2013-11-15 07:31:00,
2013-11-15 01:46:00,46.8,44.0,30.07,NNW,331,0.0,1.0,90,0.01,,,0.01,weatherlink.com 1.10,2013-11-15 07:46:00,
2013-11-15 02:01:00,47.0,44.0,30.07,NNW,331,0.0,0.0,90,0.01,,,0.01,weatherlink.com 1.10,2013-11-15 08:01:00,
2013-11-15 02:16:00,47.2,45.0,30.08,NNW,331,0.0,0.0,91,0.01,,,0.01,weatherlink.com 1.10,2013-11-15 08:16:00,
2013-11-15 02:31:00,47.3,45.0,30.06,NNW,331,0.0,0.0,91,0.00,,,0.01,weatherlink.com 1.10,2013-11-15 08:31:00,
2013-11-15 02:46:00,47.4,45.0,30.06,NNW,331,0.0,1.0,92,0.00,,,0.01,weatherlink.com 1.10,2013-11-15 08:46:00,
2013-11-15 03:01:00,47.4,45.0,30.06,NNW,331,0.0,0.0,92,0.00,,,0.01,weatherlink.com 1.10,2013-11-15 09:01:00,
2013-11-15 03:16:00,47.5,45.0,30.05,NNW,331,0.0,0.0,92,0.00,,,0.01,weatherlink.com 1.10,2013-11-15 09:16:00,
2013-11-15 03:31:00,47.8,46.0,30.04,NNW,331,0.0,0.0,93,0.00,,,0.01,weatherlink.com 1.10,2013-11-15 09:31:00,
2013-11-15 03:46:00,47.9,46.0,30.04,NNW,331,0.0,0.0,93,0.00,,,0.01,weatherlink.com 1.10,2013-11-15 09:46:00,
2013-11-15 04:01:00,48.2,47.0,30.04,NNW,331,0.0,0.0,94,0.00,,,0.01,weatherlink.com 1.10,2013-11-15 10:01:00,
2013-11-15 04:16:00,48.5,47.0,30.04,NNW,331,0.0,0.0,94,0.00,,,0.01,weatherlink.com 1.10,2013-11-15 10:16:00,
2013-11-15 04:32:00,48.9,47.0,30.03,NNW,331,0.0,0.0,94,0.00,,,0.01,weatherlink.com 1.10,2013-11-15 10:32:00,
2013-11-15 04:47:00,49.2,48.0,30.03,NNW,331,0.0,0.0,94,0.00,,,0.01,weatherlink.com 1.10,2013-11-15 10:47:00,
2013-11-15 05:02:00,49.5,48.0,30.03,NNW,331,0.0,0.0,94,0.00,,,0.01,weatherlink.com 1.10,2013-11-15 11:02:00,
2013-11-15 05:17:00,49.8,48.0,30.02,NNW,331,0.0,0.0,94,0.00,,,0.01,weatherlink.com 1.10,2013-11-15 11:17:00,
2013-11-15 05:32:00,50.0,49.0,30.03,NNW,331,0.0,0.0,95,0.00,,,0.01,weatherlink.com 1.10,2013-11-15 11:32:00,
2013-11-15 05:47:00,50.1,49.0,30.03,NNW,331,0.0,0.0,95,0.00,,,0.01,weatherlink.com 1.10,2013-11-15 11:47:00,
2013-11-15 06:02:00,50.3,49.0,30.03,NNW,331,0.0,0.0,95,0.00,,,0.01,weatherlink.com 1.10,2013-11-15 12:02:00,
2013-11-15 06:17:00,50.6,49.0,30.03,NNW,331,0.0,0.0,95,0.00,,,0.01,weatherlink.com 1.10,2013-11-15 12:17:00,
2013-11-15 06:32:00,50.8,50.0,30.03,NNW,331,0.0,0.0,95,0.02,,,0.03,weatherlink.com 1.10,2013-11-15 12:32:00,
2013-11-15 06:47:00,51.1,50.0,30.04,NNW,331,0.0,0.0,95,0.03,,,0.04,weatherlink.com 1.10,2013-11-15 12:47:00,
2013-11-15 07:02:00,51.2,50.0,30.04,NNW,331,0.0,0.0,95,0.03,,,0.04,weatherlink.com 1.10,2013-11-15 13:02:00,
2013-11-15 07:17:00,51.3,50.0,30.04,NNW,331,0.0,0.0,95,0.03,,,0.04,weatherlink.com 1.10,2013-11-15 13:17:00,
2013-11-15 07:32:00,51.6,50.0,30.05,NNW,331,0.0,0.0,95,0.01,,,0.04,weatherlink.com 1.10,2013-11-15 13:32:00,
2013-11-15 07:47:00,51.8,51.0,30.05,NNW,331,0.0,0.0,95,0.00,,,0.04,weatherlink.com 1.10,2013-11-15 13:47:00,
2013-11-15 08:02:00,52.1,51.0,30.05,NNW,331,0.0,0.0,96,0.00,,,0.04,weatherlink.com 1.10,2013-11-15 14:02:00,
2013-11-15 08:17:00,52.7,52.0,30.04,NNW,331,0.0,1.0,96,0.00,,,0.04,weatherlink.com 1.10,2013-11-15 14:17:00,
2013-11-15 08:32:00,53.5,52.0,30.05,NNW,342,0.0,1.0,96,0.00,,,0.04,weatherlink.com 1.10,2013-11-15 14:32:00,
2013-11-15 08:47:00,54.9,54.0,30.05,NNW,343,0.0,1.0,96,0.00,,,0.04,weatherlink.com 1.10,2013-11-15 14:47:00,
2013-11-15 09:02:00,56.6,56.0,30.05,NNW,344,0.0,2.0,96,0.00,,,0.04,weatherlink.com 1.10,2013-11-15 15:02:00,
2013-11-15 09:17:00,58.5,57.0,30.05,East,90,0.0,3.0,96,0.00,,,0.04,weatherlink.com 1.10,2013-11-15 15:17:00,
2013-11-15 09:32:00,61.4,59.0,30.05,SSE,168,0.0,3.0,90,0.00,,,0.04,weatherlink.com 1.10,2013-11-15 15:32:00,
2013-11-15 09:47:00,63.2,59.0,30.05,SW,234,0.0,4.0,87,0.00,,,0.04,weatherlink.com 1.10,2013-11-15 15:47:00,
2013-11-15 10:02:00,64.4,60.0,30.05,NNE,26,0.0,3.0,85,0.00,,,0.04,weatherlink.com 1.10,2013-11-15 16:02:00,
2013-11-15 10:17:00,65.0,60.0,30.05,SSW,208,0.0,4.0,83,0.00,,,0.04,weatherlink.com 1.10,2013-11-15 16:17:00,
2013-11-15 10:32:00,65.3,60.0,30.04,NE,35,2.0,6.0,82,0.00,,,0.04,weatherlink.com 1.10,2013-11-15 16:32:00,
2013-11-15 10:47:00,64.9,60.0,30.03,NNW,345,1.0,5.0,83,0.00,,,0.04,weatherlink.com 1.10,2013-11-15 16:47:00,
2013-11-15 11:03:00,65.6,60.0,30.02,NNE,12,2.0,5.0,82,0.00,,,0.04,weatherlink.com 1.10,2013-11-15 17:03:00,
2013-11-15 11:18:00,65.6,60.0,30.01,North,11,3.0,7.0,82,0.00,,,0.04,weatherlink.com 1.10,2013-11-15 17:18:00,
2013-11-15 11:33:00,66.7,61.0,30.00,North,11,2.0,5.0,81,0.00,,,0.04,weatherlink.com 1.10,2013-11-15 17:33:00,
2013-11-15 11:48:00,68.5,62.0,29.99,ENE,63,2.0,5.0,80,0.00,,,0.04,weatherlink.com 1.10,2013-11-15 17:48:00,
2013-11-15 12:03:00,69.1,62.0,29.98,NE,52,0.0,4.0,77,0.00,,,0.04,weatherlink.com 1.10,2013-11-15 18:03:00,
2013-11-15 12:18:00,69.4,62.0,29.97,NE,36,2.0,6.0,77,0.00,,,0.04,weatherlink.com 1.10,2013-11-15 18:18:00,
2013-11-15 12:33:00,70.0,63.0,29.96,NW,326,2.0,7.0,78,0.00,,,0.04,weatherlink.com 1.10,2013-11-15 18:33:00,
2013-11-15 12:48:00,71.2,63.0,29.95,West,264,0.0,5.0,74,0.00,,,0.04,weatherlink.com 1.10,2013-11-15 18:48:00,
2013-11-15 13:03:00,71.2,63.0,29.95,ESE,104,0.0,5.0,76,0.00,,,0.04,weatherlink.com 1.10,2013-11-15 19:03:00,
2013-11-15 13:18:00,71.1,64.0,29.94,WSW,255,0.0,3.0,77,0.00,,,0.04,weatherlink.com 1.10,2013-11-15 19:18:00,
2013-11-15 13:33:00,71.1,63.0,29.94,NNE,28,1.0,4.0,76,0.00,,,0.04,weatherlink.com 1.10,2013-11-15 19:33:00,
2013-11-15 13:48:00,70.7,64.0,29.93,NNE,28,0.0,1.0,78,0.00,,,0.04,weatherlink.com 1.10,2013-11-15 19:48:00,
2013-11-15 14:03:00,70.1,64.0,29.93,ESE,105,0.0,2.0,80,0.00,,,0.04,weatherlink.com 1.10,2013-11-15 20:03:00,
2013-11-15 14:18:00,70.5,64.0,29.92,ESE,104,0.0,0.0,80,0.00,,,0.04,weatherlink.com 1.10,2013-11-15 20:18:00,
2013-11-15 14:33:00,70.6,65.0,29.92,ESE,104,0.0,0.0,81,0.00,,,0.04,weatherlink.com 1.10,2013-11-15 20:33:00,
2013-11-15 14:48:00,70.7,64.0,29.92,NE,40,3.0,4.0,80,0.00,,,0.04,weatherlink.com 1.10,2013-11-15 20:48:00,
2013-11-15 15:03:00,71.1,65.0,29.91,NE,39,0.0,1.0,80,0.00,,,0.04,weatherlink.com 1.10,2013-11-15 21:03:00,
2013-11-15 15:18:00,71.3,65.0,29.91,NNE,28,0.0,2.0,81,0.00,,,0.04,weatherlink.com 1.10,2013-11-15 21:18:00,
2013-11-15 15:33:00,71.2,65.0,29.91,NE,43,0.0,1.0,81,0.00,,,0.04,weatherlink.com 1.10,2013-11-15 21:33:00,
2013-11-15 15:48:00,70.8,65.0,29.91,NNE,29,0.0,3.0,81,0.00,,,0.04,weatherlink.com 1.10,2013-11-15 21:48:00,
2013-11-15 16:03:00,70.5,65.0,29.90,NNE,29,0.0,3.0,83,0.00,,,0.04,weatherlink.com 1.10,2013-11-15 22:03:00,
2013-11-15 16:18:00,70.4,65.0,29.91,NNE,29,0.0,0.0,83,0.00,,,0.04,weatherlink.com 1.10,2013-11-15 22:18:00,
2013-11-15 16:33:00,69.9,65.0,29.90,NNE,29,0.0,0.0,84,0.00,,,0.04,weatherlink.com 1.10,2013-11-15 22:33:00,
2013-11-15 16:48:00,69.0,64.0,29.91,NNE,29,0.0,0.0,85,0.00,,,0.04,weatherlink.com 1.10,2013-11-15 22:48:00,
2013-11-15 17:03:00,68.0,64.0,29.91,NNE,29,0.0,0.0,86,0.00,,,0.04,weatherlink.com 1.10,2013-11-15 23:03:00,
2013-11-15 17:18:00,66.9,63.0,29.91,NNE,29,0.0,0.0,87,0.00,,,0.04,weatherlink.com 1.10,2013-11-15 23:18:00,
2013-11-15 17:33:00,65.7,62.0,29.90,NNE,29,0.0,0.0,88,0.00,,,0.04,weatherlink.com 1.10,2013-11-15 23:33:00,
2013-11-15 17:49:00,64.7,62.0,29.90,NNE,29,0.0,0.0,89,0.00,,,0.04,weatherlink.com 1.10,2013-11-15 23:49:00,
2013-11-15 18:03:00,64.0,61.0,29.90,NNE,29,0.0,0.0,90,0.00,,,0.04,weatherlink.com 1.10,2013-11-16 00:03:00,
2013-11-15 18:18:00,63.4,61.0,29.91,NNE,29,0.0,1.0,90,0.00,,,0.04,weatherlink.com 1.10,2013-11-16 00:18:00,
2013-11-15 18:33:00,62.8,60.0,29.91,NNE,29,0.0,0.0,91,0.00,,,0.04,weatherlink.com 1.10,2013-11-16 00:33:00,
2013-11-15 18:48:00,62.2,60.0,29.92,NNE,29,0.0,0.0,91,0.00,,,0.04,weatherlink.com 1.10,2013-11-16 00:48:00,
2013-11-15 19:03:00,61.7,59.0,29.92,NNE,29,0.0,0.0,92,0.00,,,0.04,weatherlink.com 1.10,2013-11-16 01:03:00,
2013-11-15 19:18:00,61.4,59.0,29.92,NNE,29,0.0,0.0,92,0.00,,,0.04,weatherlink.com 1.10,2013-11-16 01:18:00,
2013-11-15 19:33:00,61.2,59.0,29.92,NNE,29,0.0,0.0,93,0.00,,,0.04,weatherlink.com 1.10,2013-11-16 01:33:00,
2013-11-15 19:48:00,60.9,59.0,29.93,NNE,29,0.0,0.0,93,0.00,,,0.04,weatherlink.com 1.10,2013-11-16 01:48:00,
2013-11-15 20:03:00,60.5,59.0,29.93,NNE,29,0.0,0.0,93,0.00,,,0.04,weatherlink.com 1.10,2013-11-16 02:03:00,
2013-11-15 20:18:00,60.2,58.0,29.93,NNE,29,0.0,0.0,93,0.00,,,0.04,weatherlink.com 1.10,2013-11-16 02:18:00,
2013-11-15 20:33:00,59.9,58.0,29.94,NNE,29,0.0,0.0,93,0.00,,,0.04,weatherlink.com 1.10,2013-11-16 02:33:00,
2013-11-15 20:48:00,59.6,58.0,29.94,NNE,29,0.0,1.0,93,0.00,,,0.04,weatherlink.com 1.10,2013-11-16 02:48:00,
2013-11-15 21:03:00,60.0,58.0,29.94,East,96,0.0,1.0,94,0.00,,,0.04,weatherlink.com 1.10,2013-11-16 03:03:00,
2013-11-15 21:18:00,60.3,59.0,29.94,SSE,155,0.0,1.0,95,0.00,,,0.04,weatherlink.com 1.10,2013-11-16 03:18:00,
2013-11-15 21:33:00,60.6,59.0,29.94,South,191,0.0,3.0,95,0.00,,,0.04,weatherlink.com 1.10,2013-11-16 03:33:00,
2013-11-15 21:48:00,60.7,59.0,29.95,South,191,0.0,0.0,95,0.00,,,0.04,weatherlink.com 1.10,2013-11-16 03:48:00,
2013-11-15 22:03:00,60.7,59.0,29.95,ESE,111,0.0,3.0,95,0.00,,,0.04,weatherlink.com 1.10,2013-11-16 04:03:00,
2013-11-15 22:18:00,60.8,59.0,29.95,South,175,0.0,4.0,95,0.00,,,0.04,weatherlink.com 1.10,2013-11-16 04:18:00,
2013-11-15 22:33:00,61.0,60.0,29.95,SSE,164,0.0,2.0,96,0.00,,,0.04,weatherlink.com 1.10,2013-11-16 04:33:00,
2013-11-15 22:48:00,60.9,60.0,29.95,SSE,164,0.0,1.0,95,0.00,,,0.04,weatherlink.com 1.10,2013-11-16 04:48:00,
2013-11-15 23:03:00,60.8,60.0,29.95,South,188,0.0,5.0,96,0.00,,,0.04,weatherlink.com 1.10,2013-11-16 05:03:00,
2013-11-15 23:18:00,60.7,60.0,29.95,South,188,0.0,1.0,96,0.00,,,0.04,weatherlink.com 1.10,2013-11-16 05:18:00,
2013-11-15 23:33:00,60.5,59.0,29.94,South,188,0.0,0.0,96,0.00,,,0.04,weatherlink.com 1.10,2013-11-16 05:33:00,
2013-11-15 23:48:00,60.1,59.0,29.94,South,188,0.0,1.0,95,0.00,,,0.04,weatherlink.com 1.10,2013-11-16 05:48:00,